Time,TemperatureF,DewpointF,PressureIn,WindDirection,WindDirectionDegrees,WindSpeedMPH,WindSpeedGustMPH,Humidity,HourlyPrecipIn,Conditions,Clouds,dailyrainin,SoftwareType,DateUTC
2013-03-14 00:00:00,27.6,18.8,29.94,West,260,4.0,11.0,69,0.00,,---,0.00,VWS V14.01,2013-03-14 04:00:00,
2013-03-14 00:05:00,27.6,18.4,29.94,West,269,3.0,11.0,68,0.00,,---,0.00,VWS V14.01,2013-03-14 04:05:00,
2013-03-14 00:10:00,27.6,18.4,29.94,West,271,4.0,11.0,68,0.00,,---,0.00,VWS V14.01,2013-03-14 04:10:00,
2013-03-14 00:15:00,27.6,18.4,29.94,WSW,254,0.0,11.0,68,0.00,,---,0.00,VWS V14.01,2013-03-14 04:15:00,
2013-03-14 00:20:00,27.6,18.1,29.94,North,355,4.0,11.0,67,0.00,,---,0.00,VWS V14.01,2013-03-14 04:20:00,
2013-03-14 00:25:00,27.6,18.1,29.94,SW,215,2.0,4.0,67,0.00,,---,0.00,VWS V14.01,2013-03-14 04:25:00,
2013-03-14 00:30:00,27.6,18.1,29.94,WSW,252,3.0,7.0,67,0.00,,---,0.00,VWS V14.01,2013-03-14 04:30:00,
2013-03-14 00:35:00,27.7,18.2,29.93,WSW,253,5.0,12.0,67,0.00,,---,0.00,VWS V14.01,2013-03-14 04:35:00,
2013-03-14 00:40:00,27.8,18.3,29.93,NW,308,3.0,12.0,67,0.00,,---,0.00,VWS V14.01,2013-03-14 04:40:00,
2013-03-14 00:45:00,27.8,18.3,29.93,West,265,3.0,12.0,67,0.00,,---,0.00,VWS V14.01,2013-03-14 04:45:00,
2013-03-14 00:50:00,27.9,18.4,29.93,WNW,302,3.0,12.0,67,0.00,,---,0.00,VWS V14.01,2013-03-14 04:50:00,
2013-03-14 00:55:00,27.4,20.8,29.94,NW,320,6.0,11.0,76,0.00,,---,0.00,VWS V14.01,2013-03-14 04:55:00,
2013-03-14 01:00:00,26.7,21.1,29.94,West,267,7.0,11.0,79,0.00,,---,0.00,VWS V14.01,2013-03-14 05:00:00,
2013-03-14 01:05:00,25.1,21.0,29.94,West,277,2.0,11.0,84,0.00,,---,0.00,VWS V14.01,2013-03-14 05:05:00,
2013-03-14 01:10:00,25.2,20.8,29.94,NW,312,1.0,11.0,83,0.00,,---,0.00,VWS V14.01,2013-03-14 05:10:00,
2013-03-14 01:15:00,25.5,20.5,29.94,West,268,2.0,11.0,81,0.00,,---,0.00,VWS V14.01,2013-03-14 05:15:00,
2013-03-14 01:20:00,25.7,19.8,29.94,WNW,291,4.0,11.0,78,0.00,,---,0.00,VWS V14.01,2013-03-14 05:20:00,
2013-03-14 01:25:00,26.0,19.8,29.94,West,259,2.0,3.0,77,0.00,,---,0.00,VWS V14.01,2013-03-14 05:25:00,
2013-03-14 01:30:00,26.1,19.3,29.94,SW,234,6.0,6.0,75,0.00,,---,0.00,VWS V14.01,2013-03-14 05:30:00,
2013-03-14 01:35:00,26.1,19.3,29.94,West,279,7.0,7.0,75,0.00,,---,0.00,VWS V14.01,2013-03-14 05:35:00,
2013-03-14 01:40:00,26.0,18.2,29.94,WNW,292,5.0,8.0,72,0.00,,---,0.00,VWS V14.01,2013-03-14 05:40:00,
2013-03-14 01:45:00,25.8,18.0,29.94,NNW,342,4.0,12.0,72,0.00,,---,0.00,VWS V14.01,2013-03-14 05:45:00,
2013-03-14 01:50:00,25.6,18.2,29.95,WSW,254,6.0,12.0,73,0.00,,---,0.00,VWS V14.01,2013-03-14 05:50:00,
2013-03-14 01:55:00,25.3,17.9,29.95,NE,56,4.0,4.0,73,0.00,,---,0.00,VWS V14.01,2013-03-14 05:55:00,
2013-03-14 02:00:00,25.2,17.8,29.95,NNW,338,2.0,8.0,73,0.00,,---,0.00,VWS V14.01,2013-03-14 06:00:00,
2013-03-14 02:05:00,25.1,18.0,29.95,NW,320,3.0,8.0,74,0.00,,---,0.00,VWS V14.01,2013-03-14 06:05:00,
2013-03-14 02:10:00,24.9,17.8,29.96,West,280,3.0,8.0,74,0.00,,---,0.00,VWS V14.01,2013-03-14 06:10:00,
2013-03-14 02:15:00,24.7,17.3,29.96,NNW,335,2.0,8.0,73,0.00,,---,0.00,VWS V14.01,2013-03-14 06:15:00,
2013-03-14 02:20:00,24.7,16.6,29.97,WNW,287,8.0,11.0,71,0.00,,---,0.00,VWS V14.01,2013-03-14 06:20:00,
2013-03-14 02:25:00,24.6,15.2,29.97,SW,220,9.0,14.0,67,0.00,,---,0.00,VWS V14.01,2013-03-14 06:25:00,
2013-03-14 02:30:00,24.5,14.8,29.96,West,263,8.0,14.0,66,0.00,,---,0.00,VWS V14.01,2013-03-14 06:30:00,
2013-03-14 02:35:00,24.5,14.4,29.96,WSW,254,7.0,16.0,65,0.00,,---,0.00,VWS V14.01,2013-03-14 06:35:00,
2013-03-14 02:40:00,24.5,14.4,29.97,WSW,250,3.0,16.0,65,0.00,,---,0.00,VWS V14.01,2013-03-14 06:40:00,
2013-03-14 02:45:00,24.4,14.3,29.96,WNW,290,2.0,16.0,65,0.00,,---,0.00,VWS V14.01,2013-03-14 06:45:00,
2013-03-14 02:50:00,24.3,14.6,29.96,WNW,303,2.0,16.0,66,0.00,,---,0.00,VWS V14.01,2013-03-14 06:50:00,
2013-03-14 02:55:00,24.0,16.0,29.97,NW,321,3.0,3.0,71,0.00,,---,0.00,VWS V14.01,2013-03-14 06:55:00,
2013-03-14 03:00:00,23.6,16.2,29.96,WNW,292,4.0,11.0,73,0.00,,---,0.00,VWS V14.01,2013-03-14 07:00:00,
2013-03-14 03:05:00,23.5,15.8,29.96,WSW,255,1.0,11.0,72,0.00,,---,0.00,VWS V14.01,2013-03-14 07:05:00,
2013-03-14 03:10:00,23.6,16.2,29.97,WSW,244,4.0,12.0,73,0.00,,---,0.00,VWS V14.01,2013-03-14 07:10:00,
2013-03-14 03:15:00,23.2,16.8,29.97,SW,234,5.0,12.0,76,0.00,,---,0.00,VWS V14.01,2013-03-14 07:15:00,
2013-03-14 03:25:00,22.5,15.8,29.97,SW,229,2.0,2.0,75,0.00,,---,0.00,VWS V14.01,2013-03-14 07:25:00,
2013-03-14 03:30:00,22.6,14.6,29.97,NNW,328,3.0,15.0,71,0.00,,---,0.00,VWS V14.01,2013-03-14 07:30:00,
2013-03-14 03:35:00,22.7,14.1,29.97,East,81,4.0,15.0,69,0.00,,---,0.00,VWS V14.01,2013-03-14 07:35:00,
2013-03-14 03:40:00,22.8,13.5,29.97,NNW,342,6.0,15.0,67,0.00,,---,0.00,VWS V14.01,2013-03-14 07:40:00,
2013-03-14 03:45:00,22.8,13.2,29.97,NW,323,10.0,16.0,66,0.00,,---,0.00,VWS V14.01,2013-03-14 07:45:00,
2013-03-14 03:50:00,22.7,13.1,29.97,NNW,328,3.0,18.0,66,0.00,,---,0.00,VWS V14.01,2013-03-14 07:50:00,
2013-03-14 03:55:00,22.7,14.4,29.98,NNW,333,3.0,6.0,70,0.00,,---,0.00,VWS V14.01,2013-03-14 07:55:00,
2013-03-14 04:00:00,22.5,15.2,29.98,NNW,333,8.0,11.0,73,0.00,,---,0.00,VWS V14.01,2013-03-14 08:00:00,
2013-03-14 04:05:00,22.2,14.2,29.98,WSW,257,7.0,16.0,71,0.00,,---,0.00,VWS V14.01,2013-03-14 08:05:00,
2013-03-14 04:10:00,22.3,13.7,29.98,NW,306,5.0,16.0,69,0.00,,---,0.00,VWS V14.01,2013-03-14 08:10:00,
2013-03-14 04:15:00,22.3,12.7,29.98,WNW,299,11.0,17.0,66,0.00,,---,0.00,VWS V14.01,2013-03-14 08:15:00,
2013-03-14 04:20:00,22.3,12.3,29.98,NW,304,3.0,17.0,65,0.00,,---,0.00,VWS V14.01,2013-03-14 08:20:00,
2013-03-14 04:25:00,22.4,11.7,29.98,West,260,10.0,13.0,63,0.00,,---,0.00,VWS V14.01,2013-03-14 08:25:00,
2013-03-14 04:30:00,22.4,11.4,29.98,NNW,331,3.0,18.0,62,0.00,,---,0.00,VWS V14.01,2013-03-14 08:30:00,
2013-03-14 04:35:00,22.4,11.4,29.98,NNW,331,6.0,18.0,62,0.00,,---,0.00,VWS V14.01,2013-03-14 08:35:00,
2013-03-14 04:40:00,22.4,11.4,29.98,North,355,7.0,18.0,62,0.00,,---,0.00,VWS V14.01,2013-03-14 08:40:00,
2013-03-14 04:45:00,22.4,11.4,29.98,WSW,257,2.0,18.0,62,0.00,,---,0.00,VWS V14.01,2013-03-14 08:45:00,
2013-03-14 04:50:00,22.4,11.7,29.98,WNW,292,4.0,18.0,63,0.00,,---,0.00,VWS V14.01,2013-03-14 08:50:00,
2013-03-14 04:55:00,22.4,11.4,29.99,NNW,346,7.0,8.0,62,0.00,,---,0.00,VWS V14.01,2013-03-14 08:55:00,
2013-03-14 04:59:00,22.3,11.3,29.99,WSW,246,5.0,17.0,62,0.00,,---,0.00,VWS V14.01,2013-03-14 08:59:00,
2013-03-14 05:05:00,22.2,11.2,29.99,WNW,285,2.0,17.0,62,0.00,,---,0.00,VWS V14.01,2013-03-14 09:05:00,
2013-03-14 05:10:00,22.2,11.5,29.99,NNW,334,8.0,17.0,63,0.00,,---,0.00,VWS V14.01,2013-03-14 09:10:00,
2013-03-14 05:15:00,22.1,10.7,29.99,WNW,300,9.0,19.0,61,0.00,,---,0.00,VWS V14.01,2013-03-14 09:15:00,
2013-03-14 05:20:00,22.0,11.0,29.99,WNW,292,7.0,19.0,62,0.00,,---,0.00,VWS V14.01,2013-03-14 09:20:00,
2013-03-14 05:25:00,22.1,11.1,30.00,WSW,250,6.0,6.0,62,0.00,,---,0.00,VWS V14.01,2013-03-14 09:25:00,
2013-03-14 05:29:00,22.1,11.4,29.99,WSW,255,1.0,8.0,63,0.00,,---,0.00,VWS V14.01,2013-03-14 09:29:00,
2013-03-14 05:34:00,22.0,11.4,30.00,West,280,6.0,9.0,63,0.00,,---,0.00,VWS V14.01,2013-03-14 09:34:00,
2013-03-14 05:39:00,22.0,11.4,30.00,NNW,348,5.0,19.0,63,0.00,,---,0.00,VWS V14.01,2013-03-14 09:39:00,
2013-03-14 05:44:00,22.0,11.7,30.00,West,279,1.0,19.0,64,0.00,,---,0.00,VWS V14.01,2013-03-14 09:44:00,
2013-03-14 05:49:00,21.9,12.0,30.00,NW,307,6.0,19.0,65,0.00,,---,0.00,VWS V14.01,2013-03-14 09:49:00,
2013-03-14 05:54:00,21.8,11.9,30.00,West,279,7.0,10.0,65,0.00,,---,0.00,VWS V14.01,2013-03-14 09:54:00,
2013-03-14 05:59:00,21.8,11.9,30.00,NW,311,2.0,12.0,65,0.00,,---,0.00,VWS V14.01,2013-03-14 09:59:00,
2013-03-14 06:04:00,21.9,12.3,30.00,WNW,295,3.0,12.0,66,0.00,,---,0.00,VWS V14.01,2013-03-14 10:04:00,
2013-03-14 06:09:00,21.9,12.3,30.00,WNW,290,0.0,12.0,66,0.00,,---,0.00,VWS V14.01,2013-03-14 10:09:00,
2013-03-14 06:14:00,21.9,12.3,30.01,WNW,299,4.0,12.0,66,0.00,,---,0.00,VWS V14.01,2013-03-14 10:14:00,
2013-03-14 06:19:00,21.8,12.5,30.01,West,281,0.0,12.0,67,0.00,,---,0.00,VWS V14.01,2013-03-14 10:19:00,
2013-03-14 06:24:00,21.8,12.5,30.01,West,265,0.0,0.0,67,0.00,,---,0.00,VWS V14.01,2013-03-14 10:24:00,
2013-03-14 06:29:00,21.8,12.9,30.01,NW,311,1.0,10.0,68,0.00,,---,0.00,VWS V14.01,2013-03-14 10:29:00,
2013-03-14 06:34:00,21.8,12.9,30.01,WNW,302,6.0,10.0,68,0.00,,---,0.00,VWS V14.01,2013-03-14 10:34:00,
2013-03-14 06:39:00,21.6,12.4,30.01,WNW,297,2.0,16.0,67,0.00,,---,0.00,VWS V14.01,2013-03-14 10:39:00,
2013-03-14 06:44:00,21.5,12.6,30.01,NNW,346,2.0,16.0,68,0.00,,---,0.00,VWS V14.01,2013-03-14 10:44:00,
2013-03-14 06:49:00,21.4,12.8,30.01,WNW,287,2.0,16.0,69,0.00,,---,0.00,VWS V14.01,2013-03-14 10:49:00,
2013-03-14 06:54:00,21.4,13.1,30.02,NW,304,11.0,11.0,70,0.00,,---,0.00,VWS V14.01,2013-03-14 10:54:00,
2013-03-14 06:59:00,21.3,13.1,30.02,WNW,301,3.0,13.0,70,0.00,,---,0.00,VWS V14.01,2013-03-14 10:59:00,
2013-03-14 07:04:00,21.2,13.0,30.01,West,270,1.0,13.0,70,0.00,,---,0.00,VWS V14.01,2013-03-14 11:04:00,
2013-03-14 07:09:00,21.2,13.3,30.02,West,263,0.0,13.0,71,0.00,,---,0.00,VWS V14.01,2013-03-14 11:09:00,
2013-03-14 07:14:00,21.3,13.7,30.02,SW,216,3.0,13.0,72,0.00,,---,0.00,VWS V14.01,2013-03-14 11:14:00,
2013-03-14 07:19:00,21.3,13.4,30.01,WNW,303,5.0,13.0,71,0.00,,---,0.00,VWS V14.01,2013-03-14 11:19:00,
2013-03-14 07:24:00,21.3,13.4,30.01,WNW,288,10.0,13.0,71,0.00,,---,0.00,VWS V14.01,2013-03-14 11:24:00,
2013-03-14 07:29:00,21.2,13.3,30.01,West,277,5.0,13.0,71,0.00,,---,0.00,VWS V14.01,2013-03-14 11:29:00,
2013-03-14 07:34:00,21.2,13.6,30.02,West,274,7.0,13.0,72,0.00,,---,0.00,VWS V14.01,2013-03-14 11:34:00,
2013-03-14 07:39:00,21.1,13.5,30.02,NW,310,2.0,13.0,72,0.00,,---,0.00,VWS V14.01,2013-03-14 11:39:00,
2013-03-14 07:44:00,21.2,13.9,30.02,West,265,3.0,13.0,73,0.00,,---,0.00,VWS V14.01,2013-03-14 11:44:00,
2013-03-14 07:49:00,21.2,14.2,30.03,NW,314,5.0,13.0,74,0.00,,---,0.00,VWS V14.01,2013-03-14 11:49:00,
2013-03-14 07:54:00,21.2,14.5,30.03,NW,322,1.0,13.0,75,0.00,,---,0.00,VWS V14.01,2013-03-14 11:54:00,
2013-03-14 07:59:00,21.1,14.4,30.03,North,355,3.0,7.0,75,0.00,,---,0.00,VWS V14.01,2013-03-14 11:59:00,
2013-03-14 08:04:00,20.9,14.5,30.03,NNW,331,1.0,7.0,76,0.00,,---,0.00,VWS V14.01,2013-03-14 12:04:00,
2013-03-14 08:09:00,20.9,14.5,30.04,NW,316,3.0,8.0,76,0.00,,---,0.00,VWS V14.01,2013-03-14 12:09:00,
2013-03-14 08:14:00,21.1,14.7,30.04,NNE,27,4.0,10.0,76,0.00,,---,0.00,VWS V14.01,2013-03-14 12:14:00,
2013-03-14 08:19:00,21.1,14.7,30.04,WNW,288,1.0,10.0,76,0.00,,---,0.00,VWS V14.01,2013-03-14 12:19:00,
2013-03-14 08:24:00,21.1,14.4,30.04,WNW,298,2.0,3.0,75,0.00,,---,0.00,VWS V14.01,2013-03-14 12:24:00,
2013-03-14 08:29:00,21.2,14.8,30.04,West,263,6.0,9.0,76,0.00,,---,0.00,VWS V14.01,2013-03-14 12:29:00,
2013-03-14 08:34:00,21.3,14.9,30.04,West,270,4.0,9.0,76,0.00,,---,0.00,VWS V14.01,2013-03-14 12:34:00,
2013-03-14 08:39:00,21.3,14.9,30.05,NW,304,3.0,13.0,76,0.00,,---,0.00,VWS V14.01,2013-03-14 12:39:00,
2013-03-14 08:44:00,21.4,15.0,30.05,WNW,291,4.0,13.0,76,0.00,,---,0.00,VWS V14.01,2013-03-14 12:44:00,
2013-03-14 08:49:00,21.4,15.3,30.05,NNW,348,4.0,13.0,77,0.00,,---,0.00,VWS V14.01,2013-03-14 12:49:00,
2013-03-14 08:54:00,21.4,15.6,30.05,West,276,1.0,13.0,78,0.00,,---,0.00,VWS V14.01,2013-03-14 12:54:00,
2013-03-14 08:59:00,21.5,15.7,30.05,NNW,334,3.0,6.0,78,0.00,,---,0.00,VWS V14.01,2013-03-14 12:59:00,
2013-03-14 09:04:00,21.6,15.8,30.05,NNW,336,2.0,6.0,78,0.00,,---,0.00,VWS V14.01,2013-03-14 13:04:00,
2013-03-14 09:09:00,21.6,15.5,30.05,WNW,283,4.0,11.0,77,0.00,,---,0.00,VWS V14.01,2013-03-14 13:09:00,
2013-03-14 09:14:00,21.6,15.8,30.06,WNW,286,1.0,11.0,78,0.00,,---,0.00,VWS V14.01,2013-03-14 13:14:00,
2013-03-14 09:19:00,21.6,16.1,30.05,NW,312,5.0,11.0,79,0.00,,---,0.00,VWS V14.01,2013-03-14 13:19:00,
2013-03-14 09:24:00,21.6,16.1,30.05,WNW,293,3.0,3.0,79,0.00,,---,0.00,VWS V14.01,2013-03-14 13:24:00,
2013-03-14 09:29:00,21.8,16.3,30.06,West,272,0.0,6.0,79,0.00,,---,0.00,VWS V14.01,2013-03-14 13:29:00,
2013-03-14 09:34:00,22.0,15.9,30.05,West,278,1.0,10.0,77,0.00,,---,0.00,VWS V14.01,2013-03-14 13:34:00,
2013-03-14 09:39:00,22.2,16.1,30.05,WNW,286,1.0,10.0,77,0.00,,---,0.00,VWS V14.01,2013-03-14 13:39:00,
2013-03-14 09:45:00,22.4,16.3,30.05,NNW,329,4.0,10.0,77,0.00,,---,0.00,VWS V14.01,2013-03-14 13:45:00,
2013-03-14 09:50:00,22.4,16.3,30.05,NW,313,0.0,10.0,77,0.00,,---,0.00,VWS V14.01,2013-03-14 13:50:00,
2013-03-14 09:54:00,22.5,16.1,30.05,NW,315,0.0,0.0,76,0.00,,---,0.00,VWS V14.01,2013-03-14 13:54:00,
2013-03-14 10:00:00,22.6,16.2,30.05,North,360,2.0,9.0,76,0.00,,---,0.00,VWS V14.01,2013-03-14 14:00:00,
2013-03-14 10:05:00,22.6,16.5,30.05,NNW,328,4.0,9.0,77,0.00,,---,0.00,VWS V14.01,2013-03-14 14:05:00,
2013-03-14 10:10:00,22.7,16.9,30.05,WNW,302,3.0,9.0,78,0.00,,---,0.00,VWS V14.01,2013-03-14 14:10:00,
2013-03-14 10:15:00,22.9,17.1,30.05,NW,315,0.0,9.0,78,0.00,,---,0.00,VWS V14.01,2013-03-14 14:15:00,
2013-03-14 10:20:00,23.4,17.0,30.05,SSW,192,5.0,12.0,76,0.00,,---,0.00,VWS V14.01,2013-03-14 14:20:00,
2013-03-14 10:25:00,23.7,16.6,30.05,NNW,340,2.0,3.0,74,0.00,,---,0.00,VWS V14.01,2013-03-14 14:25:00,
2013-03-14 10:30:00,23.8,16.4,30.04,NNW,344,0.0,10.0,73,0.00,,---,0.00,VWS V14.01,2013-03-14 14:30:00,
2013-03-14 10:35:00,23.9,16.5,30.04,NW,304,0.0,10.0,73,0.00,,---,0.00,VWS V14.01,2013-03-14 14:35:00,
2013-03-14 10:40:00,24.0,16.9,30.04,NNW,345,2.0,10.0,74,0.00,,---,0.00,VWS V14.01,2013-03-14 14:40:00,
2013-03-14 10:44:00,24.2,17.1,30.04,WNW,298,1.0,10.0,74,0.00,,---,0.00,VWS V14.01,2013-03-14 14:44:00,
2013-03-14 10:50:00,24.4,17.3,30.04,NW,321,1.0,10.0,74,0.00,,---,0.00,VWS V14.01,2013-03-14 14:50:00,
2013-03-14 10:54:00,24.5,17.1,30.04,WSW,244,5.0,5.0,73,0.00,,---,0.00,VWS V14.01,2013-03-14 14:54:00,
2013-03-14 10:59:00,24.6,17.2,30.03,North,355,4.0,8.0,73,0.00,,---,0.00,VWS V14.01,2013-03-14 14:59:00,
2013-03-14 11:04:00,24.7,17.3,30.03,WNW,283,0.0,8.0,73,0.00,,---,0.00,VWS V14.01,2013-03-14 15:04:00,
2013-03-14 11:09:00,25.0,17.6,30.03,NNE,12,1.0,9.0,73,0.00,,---,0.00,VWS V14.01,2013-03-14 15:09:00,
2013-03-14 11:15:00,25.4,17.0,30.03,NNW,341,2.0,9.0,70,0.00,,---,0.00,VWS V14.01,2013-03-14 15:15:00,
2013-03-14 11:20:00,25.8,17.0,30.03,WNW,302,4.0,16.0,69,0.00,,---,0.00,VWS V14.01,2013-03-14 15:20:00,
2013-03-14 11:24:00,26.3,17.9,30.03,NNW,341,8.0,8.0,70,0.00,,---,0.00,VWS V14.01,2013-03-14 15:24:00,
2013-03-14 11:29:00,26.7,17.6,30.02,NW,323,6.0,10.0,68,0.00,,---,0.00,VWS V14.01,2013-03-14 15:29:00,
2013-03-14 11:34:00,27.1,18.0,30.02,NNW,340,2.0,10.0,68,0.00,,---,0.00,VWS V14.01,2013-03-14 15:34:00,
2013-03-14 11:39:00,27.2,17.4,30.02,WNW,296,2.0,10.0,66,0.00,,---,0.00,VWS V14.01,2013-03-14 15:39:00,
2013-03-14 11:45:00,27.5,17.6,30.02,WSW,248,5.0,11.0,66,0.00,,---,0.00,VWS V14.01,2013-03-14 15:45:00,
2013-03-14 11:50:00,27.5,18.0,30.02,West,263,1.0,13.0,67,0.00,,---,0.00,VWS V14.01,2013-03-14 15:50:00,
2013-03-14 11:55:00,27.7,17.1,30.02,NNW,327,5.0,11.0,64,0.00,,---,0.00,VWS V14.01,2013-03-14 15:55:00,
2013-03-14 11:59:00,27.8,16.5,30.01,NW,311,6.0,11.0,62,0.00,,---,0.00,VWS V14.01,2013-03-14 15:59:00,
2013-03-14 12:04:00,28.4,15.9,30.01,NW,313,4.0,13.0,59,0.00,,---,0.00,VWS V14.01,2013-03-14 16:04:00,
2013-03-14 12:09:00,29.2,16.7,30.01,SW,231,2.0,13.0,59,0.00,,---,0.00,VWS V14.01,2013-03-14 16:09:00,
2013-03-14 12:14:00,29.4,16.5,30.01,SW,216,4.0,13.0,58,0.00,,---,0.00,VWS V14.01,2013-03-14 16:14:00,
2013-03-14 12:19:00,29.6,16.2,30.01,SW,233,7.0,16.0,57,0.00,,---,0.00,VWS V14.01,2013-03-14 16:19:00,
2013-03-14 12:24:00,29.8,18.0,30.00,NW,317,3.0,4.0,61,0.00,,---,0.00,VWS V14.01,2013-03-14 16:24:00,
2013-03-14 12:29:00,30.2,16.8,30.00,NNW,328,2.0,14.0,57,0.00,,---,0.00,VWS V14.01,2013-03-14 16:29:00,
2013-03-14 12:34:00,30.8,17.4,30.00,West,263,6.0,14.0,57,0.00,,---,0.00,VWS V14.01,2013-03-14 16:34:00,
2013-03-14 12:39:00,31.2,17.3,30.00,NNW,338,4.0,16.0,56,0.00,,---,0.00,VWS V14.01,2013-03-14 16:39:00,
2013-03-14 12:44:00,31.1,15.5,30.00,West,279,10.0,16.0,52,0.00,,---,0.00,VWS V14.01,2013-03-14 16:44:00,
2013-03-14 12:49:00,31.2,16.5,30.00,WNW,290,7.0,16.0,54,0.00,,---,0.00,VWS V14.01,2013-03-14 16:49:00,
2013-03-14 12:54:00,31.4,17.1,30.00,NW,323,7.0,7.0,55,0.00,,---,0.00,VWS V14.01,2013-03-14 16:54:00,
2013-03-14 12:59:00,32.0,17.7,30.00,NW,315,0.0,16.0,55,0.00,,---,0.00,VWS V14.01,2013-03-14 16:59:00,
2013-03-14 13:04:00,32.2,15.7,30.00,NNW,342,6.0,16.0,50,0.00,,---,0.00,VWS V14.01,2013-03-14 17:04:00,
2013-03-14 13:09:00,31.8,14.8,30.00,North,5,7.0,16.0,49,0.00,,---,0.00,VWS V14.01,2013-03-14 17:09:00,
2013-03-14 13:14:00,31.7,13.8,30.00,WNW,286,1.0,17.0,47,0.00,,---,0.00,VWS V14.01,2013-03-14 17:14:00,
2013-03-14 13:19:00,32.0,14.1,30.00,West,281,4.0,17.0,47,0.00,,---,0.00,VWS V14.01,2013-03-14 17:19:00,
2013-03-14 13:24:00,31.9,14.0,30.00,West,281,0.0,19.0,47,0.00,,---,0.00,VWS V14.01,2013-03-14 17:24:00,
2013-03-14 13:29:00,32.3,14.3,30.00,NNW,348,2.0,18.0,47,0.00,,---,0.00,VWS V14.01,2013-03-14 17:29:00,
2013-03-14 13:34:00,32.6,13.1,30.00,West,281,8.0,20.0,44,0.00,,---,0.00,VWS V14.01,2013-03-14 17:34:00,
2013-03-14 13:39:00,31.8,12.9,30.00,WNW,300,5.0,24.0,45,0.00,,---,0.00,VWS V14.01,2013-03-14 17:39:00,
2013-03-14 13:44:00,32.2,14.7,30.00,WSW,241,6.0,24.0,48,0.00,,---,0.00,VWS V14.01,2013-03-14 17:44:00,
2013-03-14 13:49:00,32.7,12.7,30.00,NW,320,5.0,24.0,43,0.00,,---,0.00,VWS V14.01,2013-03-14 17:49:00,
2013-03-14 13:54:00,32.9,13.4,30.00,North,5,6.0,24.0,44,0.00,,---,0.00,VWS V14.01,2013-03-14 17:54:00,
2013-03-14 13:59:00,33.0,14.0,29.99,North,355,5.0,15.0,45,0.00,,---,0.00,VWS V14.01,2013-03-14 17:59:00,
2013-03-14 14:04:00,32.9,13.4,30.00,NNW,329,3.0,15.0,44,0.00,,---,0.00,VWS V14.01,2013-03-14 18:04:00,
2013-03-14 14:09:00,32.8,12.8,29.99,West,260,6.0,15.0,43,0.00,,---,0.00,VWS V14.01,2013-03-14 18:09:00,
2013-03-14 14:14:00,33.2,14.2,29.99,WNW,296,6.0,15.0,45,0.00,,---,0.00,VWS V14.01,2013-03-14 18:14:00,
2013-03-14 14:19:00,33.1,13.1,29.99,WSW,246,9.0,16.0,43,0.00,,---,0.00,VWS V14.01,2013-03-14 18:19:00,
2013-03-14 14:24:00,33.3,13.8,29.99,NNW,340,5.0,5.0,44,0.00,,---,0.00,VWS V14.01,2013-03-14 18:24:00,
2013-03-14 14:29:00,33.4,14.4,29.99,West,265,9.0,15.0,45,0.00,,---,0.00,VWS V14.01,2013-03-14 18:29:00,
2013-03-14 14:34:00,33.3,13.2,29.98,NNW,345,5.0,15.0,43,0.00,,---,0.00,VWS V14.01,2013-03-14 18:34:00,
2013-03-14 14:39:00,33.6,13.0,29.98,WNW,283,7.0,15.0,42,0.00,,---,0.00,VWS V14.01,2013-03-14 18:39:00,
2013-03-14 14:44:00,33.8,13.1,29.99,NNW,331,9.0,15.0,42,0.00,,---,0.00,VWS V14.01,2013-03-14 18:44:00,
2013-03-14 14:49:00,33.6,14.0,29.99,WNW,284,6.0,15.0,44,0.00,,---,0.00,VWS V14.01,2013-03-14 18:49:00,
2013-03-14 14:54:00,33.9,13.2,29.99,West,274,7.0,7.0,42,0.00,,---,0.00,VWS V14.01,2013-03-14 18:54:00,
2013-03-14 14:59:00,34.3,13.6,29.98,WNW,299,3.0,13.0,42,0.00,,---,0.00,VWS V14.01,2013-03-14 18:59:00,
2013-03-14 15:04:00,34.2,11.8,29.98,West,270,3.0,19.0,39,0.00,,---,0.00,VWS V14.01,2013-03-14 19:04:00,
2013-03-14 15:10:00,34.6,13.9,29.98,WNW,294,4.0,19.0,42,0.00,,---,0.00,VWS V14.01,2013-03-14 19:10:00,
2013-03-14 15:14:00,34.6,13.3,29.98,West,275,4.0,19.0,41,0.00,,---,0.00,VWS V14.01,2013-03-14 19:14:00,
2013-03-14 15:19:00,34.6,13.9,29.99,NW,314,4.0,19.0,42,0.00,,---,0.00,VWS V14.01,2013-03-14 19:19:00,
2013-03-14 15:24:00,34.8,13.5,29.98,NW,317,4.0,6.0,41,0.00,,---,0.00,VWS V14.01,2013-03-14 19:24:00,
2013-03-14 15:29:00,34.7,12.9,29.99,NNE,15,6.0,11.0,40,0.00,,---,0.00,VWS V14.01,2013-03-14 19:29:00,
2013-03-14 15:34:00,34.0,12.2,29.99,WNW,286,9.0,17.0,40,0.00,,---,0.00,VWS V14.01,2013-03-14 19:34:00,
2013-03-14 15:39:00,34.1,11.8,29.99,WSW,242,7.0,18.0,39,0.00,,---,0.00,VWS V14.01,2013-03-14 19:39:00,
2013-03-14 15:44:00,34.2,11.8,29.98,WSW,245,6.0,18.0,39,0.00,,---,0.00,VWS V14.01,2013-03-14 19:44:00,
2013-03-14 15:49:00,34.4,11.4,29.98,South,180,8.0,18.0,38,0.00,,---,0.00,VWS V14.01,2013-03-14 19:49:00,
2013-03-14 15:54:00,34.0,10.5,29.98,WNW,292,2.0,18.0,37,0.00,,---,0.00,VWS V14.01,2013-03-14 19:54:00,
2013-03-14 15:59:00,34.4,11.4,29.99,NNW,330,2.0,15.0,38,0.00,,---,0.00,VWS V14.01,2013-03-14 19:59:00,
2013-03-14 16:05:00,34.3,10.1,29.98,SSW,199,3.0,16.0,36,0.00,,---,0.00,VWS V14.01,2013-03-14 20:05:00,
2013-03-14 16:10:00,34.2,10.1,29.98,NNW,346,4.0,16.0,36,0.00,,---,0.00,VWS V14.01,2013-03-14 20:10:00,
2013-03-14 16:15:00,34.3,11.4,29.99,WNW,292,12.0,19.0,38,0.00,,---,0.00,VWS V14.01,2013-03-14 20:15:00,
2013-03-14 16:20:00,34.0,9.2,29.99,West,259,13.0,19.0,35,0.00,,---,0.00,VWS V14.01,2013-03-14 20:20:00,
2013-03-14 16:25:00,33.8,10.3,29.99,North,355,3.0,10.0,37,0.00,,---,0.00,VWS V14.01,2013-03-14 20:25:00,
2013-03-14 16:30:00,33.9,10.4,29.99,NNW,340,14.0,14.0,37,0.00,,---,0.00,VWS V14.01,2013-03-14 20:30:00,
2013-03-14 16:35:00,33.9,10.4,29.98,NW,323,5.0,14.0,37,0.00,,---,0.00,VWS V14.01,2013-03-14 20:35:00,
2013-03-14 16:40:00,33.8,10.9,29.99,NNW,329,4.0,14.0,38,0.00,,---,0.00,VWS V14.01,2013-03-14 20:40:00,
2013-03-14 16:45:00,33.6,9.5,29.99,NNW,346,3.0,15.0,36,0.00,,---,0.00,VWS V14.01,2013-03-14 20:45:00,
2013-03-14 16:50:00,33.6,9.5,29.99,NW,308,4.0,15.0,36,0.00,,---,0.00,VWS V14.01,2013-03-14 20:50:00,
2013-03-14 16:55:00,33.4,9.9,29.99,WNW,298,3.0,4.0,37,0.00,,---,0.00,VWS V14.01,2013-03-14 20:55:00,
2013-03-14 17:00:00,33.6,11.3,29.99,NNW,332,8.0,8.0,39,0.00,,---,0.00,VWS V14.01,2013-03-14 21:00:00,
2013-03-14 17:05:00,33.5,10.6,29.99,NNW,341,6.0,16.0,38,0.00,,---,0.00,VWS V14.01,2013-03-14 21:05:00,
2013-03-14 17:10:00,33.3,10.4,29.99,West,268,8.0,16.0,38,0.00,,---,0.00,VWS V14.01,2013-03-14 21:10:00,
2013-03-14 17:15:00,33.2,10.9,29.99,North,350,1.0,16.0,39,0.00,,---,0.00,VWS V14.01,2013-03-14 21:15:00,
2013-03-14 17:20:00,33.1,10.3,29.99,NW,323,8.0,16.0,38,0.00,,---,0.00,VWS V14.01,2013-03-14 21:20:00,
2013-03-14 17:25:00,33.0,10.2,29.99,NW,320,4.0,5.0,38,0.00,,---,0.00,VWS V14.01,2013-03-14 21:25:00,
2013-03-14 17:30:00,32.9,10.1,29.99,West,271,8.0,14.0,38,0.00,,---,0.00,VWS V14.01,2013-03-14 21:30:00,
2013-03-14 17:35:00,33.0,10.2,29.99,North,355,5.0,14.0,38,0.00,,---,0.00,VWS V14.01,2013-03-14 21:35:00,
2013-03-14 17:40:00,33.2,10.4,29.99,NW,320,3.0,14.0,38,0.00,,---,0.00,VWS V14.01,2013-03-14 21:40:00,
2013-03-14 17:45:00,33.2,10.4,29.99,NNW,339,5.0,14.0,38,0.00,,---,0.00,VWS V14.01,2013-03-14 21:45:00,
2013-03-14 17:50:00,33.0,10.8,30.00,NNW,336,12.0,14.0,39,0.00,,---,0.00,VWS V14.01,2013-03-14 21:50:00,
2013-03-14 17:55:00,32.8,9.4,29.99,NNW,347,3.0,9.0,37,0.00,,---,0.00,VWS V14.01,2013-03-14 21:55:00,
2013-03-14 18:00:00,32.6,9.8,29.99,NNW,344,5.0,15.0,38,0.00,,---,0.00,VWS V14.01,2013-03-14 22:00:00,
2013-03-14 18:05:00,32.6,9.8,29.99,NNW,329,9.0,16.0,38,0.00,,---,0.00,VWS V14.01,2013-03-14 22:05:00,
2013-03-14 18:10:00,32.6,9.8,30.00,WNW,284,3.0,16.0,38,0.00,,---,0.00,VWS V14.01,2013-03-14 22:10:00,
2013-03-14 18:15:00,32.6,9.8,29.99,NW,320,3.0,16.0,38,0.00,,---,0.00,VWS V14.01,2013-03-14 22:15:00,
2013-03-14 18:20:00,32.4,10.2,30.00,NNW,333,9.0,16.0,39,0.00,,---,0.00,VWS V14.01,2013-03-14 22:20:00,
2013-03-14 18:25:00,32.1,10.5,29.99,WNW,299,7.0,7.0,40,0.00,,---,0.00,VWS V14.01,2013-03-14 22:25:00,
2013-03-14 18:30:00,32.0,9.3,30.00,West,271,2.0,21.0,38,0.00,,---,0.00,VWS V14.01,2013-03-14 22:30:00,
2013-03-14 18:35:00,31.9,9.8,30.00,WNW,296,8.0,21.0,39,0.00,,---,0.00,VWS V14.01,2013-03-14 22:35:00,
2013-03-14 18:40:00,31.8,10.2,30.00,NNW,336,1.0,21.0,40,0.00,,---,0.00,VWS V14.01,2013-03-14 22:40:00,
2013-03-14 18:45:00,31.7,10.1,30.00,West,273,1.0,21.0,40,0.00,,---,0.00,VWS V14.01,2013-03-14 22:45:00,
2013-03-14 18:50:00,31.6,10.6,30.00,NW,304,0.0,21.0,41,0.00,,---,0.00,VWS V14.01,2013-03-14 22:50:00,
2013-03-14 18:55:00,31.5,10.5,30.00,NNW,332,0.0,2.0,41,0.00,,---,0.00,VWS V14.01,2013-03-14 22:55:00,
2013-03-14 19:00:00,31.5,10.5,30.00,West,277,0.0,12.0,41,0.00,,---,0.00,VWS V14.01,2013-03-14 23:00:00,
2013-03-14 19:05:00,31.5,10.5,30.00,WNW,294,0.0,12.0,41,0.00,,---,0.00,VWS V14.01,2013-03-14 23:05:00,
2013-03-14 19:10:00,31.4,11.0,30.00,WNW,298,4.0,16.0,42,0.00,,---,0.00,VWS V14.01,2013-03-14 23:10:00,
2013-03-14 19:15:00,31.4,11.0,30.00,NNW,336,8.0,16.0,42,0.00,,---,0.00,VWS V14.01,2013-03-14 23:15:00,
2013-03-14 19:20:00,31.3,11.4,30.00,WSW,256,3.0,16.0,43,0.00,,---,0.00,VWS V14.01,2013-03-14 23:20:00,
2013-03-14 19:25:00,31.3,10.9,30.00,NW,325,6.0,6.0,42,0.00,,---,0.00,VWS V14.01,2013-03-14 23:25:00,
2013-03-14 19:30:00,31.2,11.3,30.00,WNW,292,3.0,13.0,43,0.00,,---,0.00,VWS V14.01,2013-03-14 23:30:00,
2013-03-14 19:35:00,31.2,10.8,30.00,WNW,296,0.0,13.0,42,0.00,,---,0.00,VWS V14.01,2013-03-14 23:35:00,
2013-03-14 19:40:00,31.1,11.2,30.01,NW,321,0.0,13.0,43,0.00,,---,0.00,VWS V14.01,2013-03-14 23:40:00,
2013-03-14 19:45:00,31.0,11.1,30.01,WNW,287,6.0,13.0,43,0.00,,---,0.00,VWS V14.01,2013-03-14 23:45:00,
2013-03-14 19:50:00,31.0,11.1,30.00,NNW,329,6.0,13.0,43,0.00,,---,0.00,VWS V14.01,2013-03-14 23:50:00,
2013-03-14 19:55:00,30.9,11.1,30.01,WNW,285,2.0,3.0,43,0.00,,---,0.00,VWS V14.01,2013-03-14 23:55:00,
2013-03-14 20:00:00,30.8,11.5,30.01,WNW,284,5.0,8.0,44,0.00,,---,0.00,VWS V14.01,2013-03-15 00:00:00,
2013-03-14 20:05:00,30.7,11.4,30.01,NNW,329,6.0,8.0,44,0.00,,---,0.00,VWS V14.01,2013-03-15 00:05:00,
2013-03-14 20:10:00,30.7,12.4,30.01,West,264,5.0,11.0,46,0.00,,---,0.00,VWS V14.01,2013-03-15 00:10:00,
2013-03-14 20:15:00,30.6,12.8,30.01,NNW,333,0.0,11.0,47,0.00,,---,0.00,VWS V14.01,2013-03-15 00:15:00,
2013-03-14 20:20:00,30.6,13.3,30.01,NNW,339,6.0,11.0,48,0.00,,---,0.00,VWS V14.01,2013-03-15 00:20:00,
2013-03-14 20:25:00,30.7,13.4,30.01,WNW,292,8.0,11.0,48,0.00,,---,0.00,VWS V14.01,2013-03-15 00:25:00,
2013-03-14 20:30:00,30.7,13.4,30.01,NW,324,3.0,11.0,48,0.00,,---,0.00,VWS V14.01,2013-03-15 00:30:00,
2013-03-14 20:35:00,30.7,12.9,30.02,NNW,342,2.0,13.0,47,0.00,,---,0.00,VWS V14.01,2013-03-15 00:35:00,
2013-03-14 20:40:00,30.8,12.5,30.02,West,275,5.0,13.0,46,0.00,,---,0.00,VWS V14.01,2013-03-15 00:40:00,
2013-03-14 20:45:00,30.7,12.4,30.02,North,351,0.0,13.0,46,0.00,,---,0.00,VWS V14.01,2013-03-15 00:45:00,
2013-03-14 20:50:00,30.5,12.7,30.02,NW,305,3.0,13.0,47,0.00,,---,0.00,VWS V14.01,2013-03-15 00:50:00,
2013-03-14 20:55:00,30.3,12.5,30.02,NW,309,2.0,4.0,47,0.00,,---,0.00,VWS V14.01,2013-03-15 00:55:00,
2013-03-14 21:00:00,30.2,12.4,30.02,NW,323,3.0,6.0,47,0.00,,---,0.00,VWS V14.01,2013-03-15 01:00:00,
2013-03-14 21:05:00,30.2,12.9,30.02,NW,311,1.0,8.0,48,0.00,,---,0.00,VWS V14.01,2013-03-15 01:05:00,
2013-03-14 21:10:00,30.0,13.2,30.02,West,265,1.0,8.0,49,0.00,,---,0.00,VWS V14.01,2013-03-15 01:10:00,
2013-03-14 21:15:00,30.0,13.6,30.02,West,268,1.0,11.0,50,0.00,,---,0.00,VWS V14.01,2013-03-15 01:15:00,
2013-03-14 21:20:00,29.9,14.0,30.03,WSW,253,2.0,11.0,51,0.00,,---,0.00,VWS V14.01,2013-03-15 01:20:00,
2013-03-14 21:25:00,29.9,14.0,30.03,NNW,342,2.0,5.0,51,0.00,,---,0.00,VWS V14.01,2013-03-15 01:25:00,
2013-03-14 21:30:00,29.8,13.9,30.03,WNW,302,5.0,9.0,51,0.00,,---,0.00,VWS V14.01,2013-03-15 01:30:00,
2013-03-14 21:35:00,29.7,13.8,30.03,NW,313,4.0,9.0,51,0.00,,---,0.00,VWS V14.01,2013-03-15 01:35:00,
2013-03-14 21:40:00,29.7,13.8,30.03,WNW,286,4.0,9.0,51,0.00,,---,0.00,VWS V14.01,2013-03-15 01:40:00,
2013-03-14 21:45:00,29.7,14.2,30.03,WNW,289,8.0,9.0,52,0.00,,---,0.00,VWS V14.01,2013-03-15 01:45:00,
2013-03-14 21:50:00,29.6,14.1,30.03,NW,324,0.0,10.0,52,0.00,,---,0.00,VWS V14.01,2013-03-15 01:50:00,
2013-03-14 21:55:00,29.6,14.1,30.03,NW,305,3.0,5.0,52,0.00,,---,0.00,VWS V14.01,2013-03-15 01:55:00,
2013-03-14 22:00:00,29.5,14.1,30.04,West,275,4.0,8.0,52,0.00,,---,0.00,VWS V14.01,2013-03-15 02:00:00,
2013-03-14 22:05:00,29.4,14.4,30.04,NW,317,0.0,8.0,53,0.00,,---,0.00,VWS V14.01,2013-03-15 02:05:00,
2013-03-14 22:10:00,29.4,14.0,30.04,WNW,289,1.0,8.0,52,0.00,,---,0.00,VWS V14.01,2013-03-15 02:10:00,
2013-03-14 22:15:00,29.3,13.9,30.04,NNW,333,6.0,9.0,52,0.00,,---,0.00,VWS V14.01,2013-03-15 02:15:00,
2013-03-14 22:20:00,29.3,14.3,30.04,NW,317,4.0,9.0,53,0.00,,---,0.00,VWS V14.01,2013-03-15 02:20:00,
2013-03-14 22:25:00,29.2,14.2,30.04,NNW,330,7.0,8.0,53,0.00,,---,0.00,VWS V14.01,2013-03-15 02:25:00,
2013-03-14 22:30:00,29.1,14.5,30.04,North,351,3.0,8.0,54,0.00,,---,0.00,VWS V14.01,2013-03-15 02:30:00,
2013-03-14 22:35:00,29.0,14.4,30.04,NNW,329,1.0,9.0,54,0.00,,---,0.00,VWS V14.01,2013-03-15 02:35:00,
2013-03-14 22:40:00,29.0,14.9,30.04,NW,318,2.0,9.0,55,0.00,,---,0.00,VWS V14.01,2013-03-15 02:40:00,
2013-03-14 22:45:00,29.0,14.9,30.04,NNW,336,0.0,9.0,55,0.00,,---,0.00,VWS V14.01,2013-03-15 02:45:00,
2013-03-14 22:50:00,28.8,14.7,30.04,West,277,4.0,9.0,55,0.00,,---,0.00,VWS V14.01,2013-03-15 02:50:00,
2013-03-14 22:55:00,28.9,14.8,30.04,WNW,292,3.0,6.0,55,0.00,,---,0.00,VWS V14.01,2013-03-15 02:55:00,
2013-03-14 23:00:00,28.9,15.2,30.04,WNW,293,4.0,9.0,56,0.00,,---,0.00,VWS V14.01,2013-03-15 03:00:00,
2013-03-14 23:05:00,28.9,14.8,30.04,WNW,290,2.0,10.0,55,0.00,,---,0.00,VWS V14.01,2013-03-15 03:05:00,
2013-03-14 23:10:00,28.9,14.8,30.04,NW,313,1.0,10.0,55,0.00,,---,0.00,VWS V14.01,2013-03-15 03:10:00,
2013-03-14 23:15:00,28.9,15.2,30.04,WNW,303,0.0,10.0,56,0.00,,---,0.00,VWS V14.01,2013-03-15 03:15:00,
2013-03-14 23:20:00,28.9,15.2,30.04,WNW,296,0.0,10.0,56,0.00,,---,0.00,VWS V14.01,2013-03-15 03:20:00,
2013-03-14 23:25:00,28.9,15.2,30.04,WNW,296,0.0,0.0,56,0.00,,---,0.00,VWS V14.01,2013-03-15 03:25:00,
2013-03-14 23:30:00,28.7,15.4,30.05,NNE,22,0.0,4.0,57,0.00,,---,0.00,VWS V14.01,2013-03-15 03:30:00,
2013-03-14 23:35:00,28.7,15.4,30.05,West,275,0.0,10.0,57,0.00,,---,0.00,VWS V14.01,2013-03-15 03:35:00,
2013-03-14 23:40:00,28.8,15.5,30.04,West,271,0.0,10.0,57,0.00,,---,0.00,VWS V14.01,2013-03-15 03:40:00,
2013-03-14 23:45:00,28.8,15.9,30.04,NNW,333,0.0,10.0,58,0.00,,---,0.00,VWS V14.01,2013-03-15 03:45:00,
2013-03-14 23:50:00,28.7,15.8,30.04,NW,313,1.0,11.0,58,0.00,,---,0.00,VWS V14.01,2013-03-15 03:50:00,
2013-03-14 23:55:00,28.7,15.8,30.05,West,278,9.0,10.0,58,0.00,,---,0.00,VWS V14.01,2013-03-15 03:55:00,